DW9987 Weather Reports


Display with metric or nautical units.
time (UTC)temp
F
wind
direction
speed
MPH
gust
MPH
rain 1hr
in
rain 24hr
in
rain mn
in
humidity
%
barometer
mb
20260901104520 75 197 0.0 3.0 0.00 0.14 0.01 90 1013.3
20260901103020 75 196 0.0 3.0 0.00 0.14 0.01 90 1013.1
20260901101518 75 201 0.0 0.0 0.00 0.14 0.01 90 1013.2
20260901100017 76 223 0.0 2.0 0.01 0.14 0.01 89 1013.1
20260901094521 76 223 0.0 1.0 0.01 0.14 0.01 89 1013.3
20260901093015 76 214 0.0 0.0 0.01 0.14 0.01 88 1013.4
20260901091513 76 214 0.0 2.0 0.01 0.14 0.01 87 1013.2
20260901090012 77 217 0.0 0.0 0.00 0.13 0.00 87 1013.2
20260901084512 77 217 0.0 3.0 0.00 0.13 0.00 86 1013.0
20260901083011 77 247 0.0 4.0 0.00 0.13 0.00 85 1013.1
20260901081510 77 265 0.0 4.0 0.00 0.13 0.00 84 1013.1
20260901080010 78 240 1.0 6.0 0.00 0.13 0.00 83 1013.0
20260901074510 78 229 1.0 5.0 0.00 0.13 0.00 83 1013.1
20260901073009 78 234 0.0 4.0 0.00 0.13 0.00 83 1013.0
20260901071508 78 242 1.0 4.0 0.00 0.13 0.00 83 1013.0
20260901070007 78 207 0.0 3.0 0.00 0.13 0.00 83 1013.0
20260901064515 78 244 1.0 6.0 0.00 0.13 0.00 83 1013.0
20260901063014 78 250 1.0 8.0 0.00 0.13 0.00 84 1012.9
20260901061503 77 206 2.0 5.0 0.00 0.13 0.00 85 1012.7
20260901060101 77 202 2.0 5.0 0.00 0.13 0.00 87 1012.8
20260901054559 76 190 1.0 5.0 0.00 0.13 0.00 89 1012.8
20260901053103 76 188 1.0 5.0 0.00 0.13 0.00 91 1012.9
20260901051555 76 195 0.0 3.0 0.00 0.13 0.00 91 1012.9
20260901050053 76 195 0.0 3.0 0.00 0.13 0.00 92 1013.0
20260901044557 76 197 0.0 0.0 0.00 0.13 0.13 90 1012.9
20260901043052 77 198 0.0 0.0 0.00 0.13 0.13 90 1013.1
20260901041651 77 197 0.0 5.0 0.00 0.13 0.13 91 1013.1
20260901040050 76 193 1.0 4.0 0.00 0.13 0.13 92 1013.1
20260901034551 77 209 0.0 2.0 0.00 0.13 0.13 93 1013.1
20260901033050 76 209 0.0 4.0 0.00 0.13 0.13 94 1013.0
20260901031549 76 191 0.0 2.0 0.00 0.13 0.13 94 1013.1
20260901030049 76 201 0.0 3.0 0.00 0.13 0.13 95 1013.1
20260901024549 76 202 0.0 1.0 0.00 0.13 0.13 94 1013.1
20260901023048 76 183 0.0 3.0 0.00 0.13 0.13 94 1013.2
20260901021547 76 179 0.0 3.0 0.00 0.13 0.13 95 1013.1
20260901020051 76 195 0.0 1.0 0.00 0.13 0.13 94 1013.1
20260901014547 75 206 0.0 0.0 0.00 0.15 0.13 94 1013.1
20260901013053 75 206 0.0 0.0 0.00 0.15 0.13 94 1013.0
20260901011545 76 206 0.0 0.0 0.00 0.15 0.13 93 1013.0
20260901010046 76 206 0.0 0.0 0.00 0.15 0.13 93 1012.7
20260901004544 77 206 0.0 0.0 0.00 0.15 0.13 92 1012.8
20260901003044 77 206 0.0 0.0 0.00 0.15 0.13 92 1012.8
20260901001544 78 206 0.0 0.0 0.03 0.15 0.13 91 1012.7
20260901000044 78 207 0.0 2.0 0.03 0.15 0.13 91 1012.2
20260831234550 79 183 0.0 2.0 0.03 0.15 0.13 90 1012.1
20260831233047 80 202 0.0 2.0 0.03 0.15 0.13 90 1012.1
20260831231541 80 193 0.0 0.0 0.03 0.12 0.10 90 1013.3
20260831230043 81 193 0.0 0.0 0.03 0.12 0.10 89 1012.8
20260831224541 82 193 0.0 0.0 0.03 0.14 0.10 85 1012.1
20260831223051 84 193 0.0 0.0 0.03 0.14 0.10 79 1012.2
20260831221540 87 193 0.0 2.0 0.00 0.11 0.07 70 1012.4
20260831220042 88 207 0.0 2.0 0.00 0.11 0.07 65 1012.2
20260831214554 88 254 1.0 6.0 0.00 0.11 0.07 65 1012.0
20260831213038 88 193 0.0 6.0 0.00 0.11 0.07 65 1012.2
20260831211538 89 163 1.0 6.0 0.00 0.11 0.07 61 1012.2
20260831210039 90 169 0.0 3.0 0.00 0.11 0.07 64 1012.3
20260831204534 90 213 0.0 5.0 0.00 0.12 0.07 61 1012.4
20260831203031 89 240 0.0 5.0 0.00 0.12 0.07 63 1012.6
20260831201531 89 229 1.0 4.0 0.00 0.12 0.07 61 1012.6
20260831200030 90 115 2.0 8.0 0.00 0.12 0.07 62 1012.5
20260831194530 89 184 4.0 12.0 0.00 0.12 0.07 63 1012.5
20260831193046 88 194 3.0 11.0 0.00 0.12 0.07 61 1012.5
20260831191526 89 201 2.0 10.0 0.00 0.12 0.07 64 1012.6
20260831190025 88 11 1.0 7.0 0.00 0.12 0.07 67 1012.7
20260831184519 87 215 3.0 10.0 0.00 0.12 0.07 65 1012.6
20260831183015 86 211 5.0 11.0 0.00 0.12 0.07 65 1012.8
20260831181520 85 198 3.0 10.0 0.00 0.12 0.07 69 1012.9
20260831180011 84 204 3.0 10.0 0.00 0.12 0.07 69 1013.0
20260831174505 83 229 3.0 7.0 0.00 0.12 0.07 74 1013.3
20260831173005 82 160 1.0 9.0 0.00 0.12 0.07 75 1013.3
20260831171558 80 193 2.0 5.0 0.00 0.12 0.07 81 1013.6
20260831170054 78 263 2.0 8.0 0.00 0.12 0.07 83 1013.8
20260831164606 77 180 4.0 11.0 0.00 0.12 0.07 85 1014.2
20260831163047 75 153 0.0 3.0 0.00 0.12 0.07 92 1014.2
20260831161559 73 139 0.0 2.0 0.04 0.12 0.07 94 1014.2
20260831160059 71 214 0.0 3.0 0.04 0.12 0.07 94 1014.2
20260831154549 71 190 0.0 3.0 0.04 0.12 0.07 93 1014.4
20260831153044 71 198 0.0 3.0 0.04 0.12 0.07 92 1014.5
20260831151546 71 190 0.0 3.0 0.00 0.08 0.03 93 1014.7
20260831150042 71 213 0.0 5.0 0.00 0.08 0.03 93 1014.6
20260831144539 70 236 0.0 2.0 0.00 0.08 0.03 94 1014.4
20260831143039 69 230 0.0 3.0 0.00 0.08 0.03 95 1014.4
20260831141538 69 346 0.0 0.0 0.00 0.08 0.03 94 1014.4
20260831140038 69 234 0.0 2.0 0.00 0.08 0.03 94 1014.4
20260831134538 69 223 0.0 2.0 0.02 0.10 0.03 93 1014.4
20260831133036 69 224 0.0 0.0 0.03 0.10 0.03 93 1014.3
20260831131552 69 225 0.0 0.0 0.03 0.10 0.03 92 1014.2
20260831130041 69 220 0.0 0.0 0.03 0.10 0.03 91 1014.3
20260831124537 70 221 0.0 0.0 0.01 0.13 0.01 89 1014.4
20260831123028 71 221 0.0 0.0 0.00 0.12 0.00 88 1014.0
20260831121530 70 204 0.0 5.0 0.00 0.12 0.00 86 1013.7
20260831120026 70 206 1.0 5.0 0.00 0.12 0.00 86 1013.4
20260831114525 70 207 1.0 3.0 0.00 0.15 0.00 87 1013.5
20260831113025 70 202 0.0 3.0 0.00 0.15 0.00 88 1013.3
20260831111533 70 195 0.0 3.0 0.00 0.15 0.00 88 1013.4
20260831110022 71 195 0.0 3.0 0.00 0.15 0.00 85 1013.4